KUIPER-00375

导读 | 豆包AI

KUIPER-00375(NORAD编号68868)是亚马逊“柯伊伯计划”(Project Kuiper)星座中的一颗近地轨道互联网卫星,属于2025年4月发射的首批27颗量产卫星之一。该卫星由亚马逊研发,旨在构建全球低轨宽带互联网星座,为偏远地区提供高速网络接入。卫星发射后先进入450公里初始轨道,通过电推进系统逐步爬升,最终将运行在630公里的近地轨道。相比早期原型卫星,KUIPER-00375升级了相控阵天线与推进系统,配备减反射薄膜降低天文观测干扰,目前已进入在轨调试阶段,是柯伊伯计划组网的关键组成部分。

Basic Information
目录编号:
68868
目录名称:
KUIPER-00375
国际标识:
2026-095E
轨道中心:
EARTH
卫星名称:
KUIPER-00375
卫星全名:
KUIPER-00375
卫星状态:
在轨 (已飞行27 天)
发射日期:
2026-04-28 UTC
国别 :
美国 (US)
星等 :
--
Orbit Information
数据来源 国际轨道数据
星历时间: 2026-05-24T05:19:00+0800
1天前
查看轨道信息
半长轴: 6828.097km
偏心率: 0.0001391
轨道倾角: 51.885°
近地点辐角 172.908°
升交点赤经 359.688°
平近点角 187.192°
近地点: 449.01km
远地点: 450.91km
周期: 93.586分钟
每日圈数: 15.386975
Detailed Information
使用方式:
暂无
2D Orbit Map
3D Orbit Map
Orbit Altitude Analysis Chart
Orbit Inclination Analysis Chart
Orbit Comprehensive Analysis Chart
View Comprehensive Chart